| time (UTC) | temp F | wind direction | speed MPH | gust MPH | rain 1hr in | rain 24hr in | rain mn in | humidity % | barometer mb |
| 20260831234313 | 83 | 16 | 3.0 | 6.0 | 0.00 | 0.00 | 0.00 | 45 | 1013.8 |
| 20260831233809 | 84 | 340 | 4.0 | 6.0 | 0.00 | 0.00 | 0.00 | 45 | 1013.8 |
| 20260831233304 | 84 | 343 | 7.0 | 8.0 | 0.00 | 0.00 | 0.00 | 43 | 1013.8 |
| 20260831232759 | 84 | 12 | 4.0 | 9.0 | 0.00 | 0.00 | 0.00 | 43 | 1013.7 |
| 20260831232255 | 84 | 7 | 4.0 | 8.0 | 0.00 | 0.00 | 0.00 | 44 | 1013.7 |
| 20260831231745 | 85 | 21 | 3.0 | 7.0 | 0.00 | 0.00 | 0.00 | 43 | 1013.7 |
| 20260831231241 | 85 | 357 | 5.0 | 8.0 | 0.00 | 0.00 | 0.00 | 44 | 1013.7 |
| 20260831230736 | 85 | 315 | 1.0 | 2.0 | 0.00 | 0.00 | 0.00 | 47 | 1013.6 |
| 20260831230230 | 85 | 334 | 2.0 | 4.0 | 0.00 | 0.00 | 0.00 | 45 | 1013.7 |
| 20260831225729 | 86 | 322 | 4.0 | 5.0 | 0.00 | 0.00 | 0.00 | 44 | 1013.6 |
| 20260831225225 | 87 | 16 | 3.0 | 4.0 | 0.00 | 0.00 | 0.00 | 39 | 1013.7 |
| 20260831224720 | 87 | 345 | 3.0 | 6.0 | 0.00 | 0.00 | 0.00 | 38 | 1013.9 |
| 20260831224215 | 86 | 344 | 2.0 | 6.0 | 0.00 | 0.00 | 0.00 | 38 | 1014.1 |
| 20260831223705 | 86 | 228 | 1.0 | 2.0 | 0.00 | 0.00 | 0.00 | 41 | 1013.9 |
| 20260831223201 | 88 | 328 | 3.0 | 5.0 | 0.00 | 0.00 | 0.00 | 36 | 1013.7 |
| 20260831222657 | 88 | 135 | 1.0 | 3.0 | 0.00 | 0.00 | 0.00 | 36 | 1014.0 |
| 20260831222153 | 88 | 307 | 1.0 | 3.0 | 0.00 | 0.00 | 0.00 | 36 | 1013.8 |
| 20260831221648 | 89 | 312 | 2.0 | 3.0 | 0.00 | 0.00 | 0.00 | 35 | 1013.9 |
| 20260831221143 | 89 | 269 | 0.0 | 3.0 | 0.00 | 0.00 | 0.00 | 37 | 1013.8 |
| 20260831220638 | 88 | 318 | 3.0 | 3.0 | 0.00 | 0.00 | 0.00 | 36 | 1013.9 |
| 20260831220132 | 86 | 322 | 2.0 | 2.0 | 0.00 | 0.00 | 0.00 | 41 | 1013.9 |
| 20260831215628 | 86 | 224 | 0.0 | 2.0 | 0.00 | 0.00 | 0.00 | 41 | 1013.9 |
| 20260831215124 | 87 | 269 | 1.0 | 3.0 | 0.00 | 0.00 | 0.00 | 39 | 1013.9 |
| 20260831214621 | 90 | 351 | 1.0 | 2.0 | 0.00 | 0.00 | 0.00 | 38 | 1014.1 |
| 20260831214117 | 90 | 248 | 1.0 | 4.0 | 0.00 | 0.00 | 0.00 | 36 | 1014.0 |
| 20260831213614 | 90 | 324 | 0.0 | 3.0 | 0.00 | 0.00 | 0.00 | 36 | 1013.9 |
| 20260831213108 | 90 | 263 | 2.0 | 3.0 | 0.00 | 0.00 | 0.00 | 35 | 1014.3 |
| 20260831212605 | 91 | 269 | 2.0 | 2.0 | 0.00 | 0.00 | 0.00 | 38 | 1014.1 |
| 20260831212101 | 91 | 216 | 2.0 | 3.0 | 0.00 | 0.00 | 0.00 | 34 | 1014.1 |
| 20260831211600 | 90 | 257 | 2.0 | 3.0 | 0.00 | 0.00 | 0.00 | 38 | 1014.2 |
| 20260831211054 | 89 | 315 | 1.0 | 4.0 | 0.00 | 0.00 | 0.00 | 40 | 1014.2 |
| 20260831210550 | 88 | 312 | 3.0 | 6.0 | 0.00 | 0.00 | 0.00 | 39 | 1013.9 |
| 20260831210046 | 89 | 358 | 4.0 | 5.0 | 0.00 | 0.00 | 0.00 | 36 | 1014.2 |
| 20260831205545 | 93 | 215 | 1.0 | 2.0 | 0.00 | 0.00 | 0.00 | 33 | 1014.3 |
| 20260831205041 | 91 | 218 | 2.0 | 2.0 | 0.00 | 0.00 | 0.00 | 34 | 1014.5 |
| 20260831204536 | 91 | 287 | 2.0 | 3.0 | 0.00 | 0.00 | 0.00 | 35 | 1014.5 |
| 20260831204034 | 91 | 283 | 1.0 | 2.0 | 0.00 | 0.00 | 0.00 | 32 | 1014.6 |
| 20260831203534 | 89 | 252 | 1.0 | 3.0 | 0.00 | 0.00 | 0.00 | 37 | 1014.7 |
| 20260831203033 | 88 | 242 | 2.0 | 4.0 | 0.00 | 0.00 | 0.00 | 37 | 1014.5 |
| 20260831202527 | 87 | 320 | 2.0 | 5.0 | 0.00 | 0.00 | 0.00 | 39 | 1014.6 |
| 20260831202027 | 86 | 320 | 2.0 | 6.0 | 0.00 | 0.00 | 0.00 | 39 | 1014.6 |
| 20260831201526 | 87 | 253 | 2.0 | 2.0 | 0.00 | 0.00 | 0.00 | 44 | 1014.7 |
| 20260831201021 | 87 | 17 | 4.0 | 4.0 | 0.00 | 0.00 | 0.00 | 40 | 1014.5 |
| 20260831200517 | 88 | 293 | 2.0 | 3.0 | 0.00 | 0.00 | 0.00 | 41 | 1014.3 |
| 20260831200012 | 87 | 253 | 2.0 | 3.0 | 0.00 | 0.00 | 0.00 | 41 | 1014.8 |
| 20260831195508 | 87 | 303 | 1.0 | 5.0 | 0.00 | 0.00 | 0.00 | 40 | 1014.8 |
| 20260831195007 | 87 | 15 | 3.0 | 6.0 | 0.00 | 0.00 | 0.00 | 33 | 1014.9 |
| 20260831194503 | 87 | 259 | 0.0 | 4.0 | 0.00 | 0.00 | 0.00 | 36 | 1015.2 |
| 20260831194002 | 89 | 258 | 3.0 | 3.0 | 0.00 | 0.00 | 0.00 | 35 | 1015.0 |
| 20260831193458 | 89 | 249 | 3.0 | 3.0 | 0.00 | 0.00 | 0.00 | 36 | 1015.1 |
| 20260831192952 | 88 | 88 | 3.0 | 4.0 | 0.00 | 0.00 | 0.00 | 34 | 1015.1 |
| 20260831192447 | 88 | 196 | 4.0 | 4.0 | 0.00 | 0.00 | 0.00 | 38 | 1015.2 |
| 20260831191942 | 88 | 245 | 2.0 | 4.0 | 0.00 | 0.00 | 0.00 | 41 | 1015.3 |
| 20260831191439 | 87 | 248 | 1.0 | 2.0 | 0.00 | 0.00 | 0.00 | 36 | 1015.2 |
| 20260831190935 | 87 | 252 | 0.0 | 2.0 | 0.00 | 0.00 | 0.00 | 44 | 1015.0 |
| 20260831190429 | 87 | 281 | 2.0 | 4.0 | 0.00 | 0.00 | 0.00 | 45 | 1015.2 |
| 20260831185928 | 87 | 176 | 4.0 | 4.0 | 0.00 | 0.00 | 0.00 | 39 | 1015.1 |
| 20260831185424 | 85 | 15 | 0.0 | 5.0 | 0.00 | 0.00 | 0.00 | 40 | 1015.1 |
| 20260831184924 | 85 | 284 | 0.0 | 3.0 | 0.00 | 0.00 | 0.00 | 43 | 1015.2 |
| 20260831184419 | 86 | 269 | 0.0 | 3.0 | 0.00 | 0.00 | 0.00 | 45 | 1015.3 |
| 20260831183914 | 86 | 288 | 1.0 | 5.0 | 0.00 | 0.00 | 0.00 | 45 | 1015.3 |
| 20260831183414 | 85 | 147 | 4.0 | 5.0 | 0.00 | 0.00 | 0.00 | 40 | 1015.1 |
| 20260831182913 | 83 | 276 | 2.0 | 3.0 | 0.00 | 0.00 | 0.00 | 50 | 1015.2 |
| 20260831182409 | 85 | 314 | 3.0 | 3.0 | 0.00 | 0.00 | 0.00 | 44 | 1015.3 |
| 20260831181903 | 84 | 249 | 3.0 | 4.0 | 0.00 | 0.00 | 0.00 | 49 | 1015.1 |
| 20260831181359 | 84 | 257 | 3.0 | 3.0 | 0.00 | 0.00 | 0.00 | 50 | 1015.5 |
| 20260831180853 | 85 | 355 | 3.0 | 4.0 | 0.00 | 0.00 | 0.00 | 47 | 1015.6 |
| 20260831180348 | 84 | 260 | 2.0 | 2.0 | 0.00 | 0.00 | 0.00 | 48 | 1015.6 |
| 20260831175847 | 82 | 246 | 0.0 | 4.0 | 0.00 | 0.00 | 0.00 | 49 | 1015.7 |
| 20260831175344 | 82 | 269 | 2.0 | 2.0 | 0.00 | 0.00 | 0.00 | 48 | 1015.8 |
| 20260831174840 | 82 | 205 | 1.0 | 3.0 | 0.00 | 0.00 | 0.00 | 48 | 1015.7 |
| 20260831174335 | 82 | 280 | 2.0 | 2.0 | 0.00 | 0.00 | 0.00 | 52 | 1015.6 |
| 20260831173834 | 82 | 250 | 2.0 | 3.0 | 0.00 | 0.00 | 0.00 | 51 | 1015.7 |
| 20260831173328 | 81 | 240 | 3.0 | 4.0 | 0.00 | 0.00 | 0.00 | 56 | 1015.8 |
| 20260831172823 | 81 | 253 | 2.0 | 4.0 | 0.00 | 0.00 | 0.00 | 55 | 1015.6 |
| 20260831172319 | 80 | 284 | 1.0 | 4.0 | 0.00 | 0.00 | 0.00 | 55 | 1015.6 |
| 20260831171818 | 79 | 253 | 2.0 | 5.0 | 0.00 | 0.00 | 0.00 | 56 | 1015.6 |
| 20260831171315 | 78 | 9 | 2.0 | 3.0 | 0.00 | 0.00 | 0.00 | 57 | 1015.6 |
| 20260831170812 | 79 | 265 | 3.0 | 4.0 | 0.00 | 0.00 | 0.00 | 55 | 1015.8 |
| 20260831170307 | 78 | 279 | 3.0 | 5.0 | 0.00 | 0.00 | 0.00 | 60 | 1015.8 |
| 20260831165804 | 78 | 277 | 1.0 | 3.0 | 0.00 | 0.00 | 0.00 | 57 | 1015.8 |
| 20260831165300 | 78 | 264 | 2.0 | 4.0 | 0.00 | 0.00 | 0.00 | 58 | 1016.0 |
| 20260831164755 | 78 | 257 | 0.0 | 2.0 | 0.00 | 0.00 | 0.00 | 59 | 1016.0 |
| 20260831164252 | 77 | 258 | 3.0 | 3.0 | 0.00 | 0.00 | 0.00 | 60 | 1016.1 |
| 20260831163747 | 76 | 259 | 2.0 | 3.0 | 0.00 | 0.00 | 0.00 | 60 | 1016.0 |
| 20260831163242 | 75 | 247 | 0.0 | 2.0 | 0.00 | 0.00 | 0.00 | 64 | 1015.7 |
| 20260831162741 | 76 | 346 | 1.0 | 4.0 | 0.00 | 0.00 | 0.00 | 62 | 1015.7 |
| 20260831162236 | 77 | 275 | 3.0 | 4.0 | 0.00 | 0.00 | 0.00 | 59 | 1015.8 |
| 20260831161735 | 79 | 322 | 0.0 | 4.0 | 0.00 | 0.00 | 0.00 | 58 | 1015.9 |
| 20260831161232 | 78 | 260 | 2.0 | 3.0 | 0.00 | 0.00 | 0.00 | 58 | 1015.9 |
| 20260831160732 | 77 | 84 | 2.0 | 3.0 | 0.00 | 0.00 | 0.00 | 61 | 1016.1 |
| 20260831160227 | 76 | 313 | 1.0 | 3.0 | 0.00 | 0.00 | 0.00 | 62 | 1016.0 |
| 20260831155726 | 76 | 251 | 2.0 | 5.0 | 0.00 | 0.00 | 0.00 | 62 | 1015.8 |
| 20260831155222 | 75 | 196 | 2.0 | 4.0 | 0.00 | 0.00 | 0.00 | 60 | 1015.9 |
| 20260831154718 | 74 | 258 | 3.0 | 3.0 | 0.00 | 0.00 | 0.00 | 63 | 1015.7 |
| 20260831154214 | 72 | 297 | 1.0 | 5.0 | 0.00 | 0.00 | 0.00 | 66 | 1015.6 |
| 20260831153713 | 72 | 359 | 4.0 | 4.0 | 0.00 | 0.00 | 0.00 | 66 | 1015.7 |
| 20260831153209 | 73 | 351 | 5.0 | 7.0 | 0.00 | 0.00 | 0.00 | 63 | 1015.7 |
| 20260831152704 | 73 | 271 | 3.0 | 3.0 | 0.00 | 0.00 | 0.00 | 65 | 1015.6 |
| 20260831152200 | 71 | 338 | 2.0 | 5.0 | 0.00 | 0.00 | 0.00 | 67 | 1015.4 |
| 20260831151700 | 71 | 316 | 4.0 | 7.0 | 0.00 | 0.00 | 0.00 | 66 | 1015.6 |
| 20260831151154 | 72 | 302 | 2.0 | 3.0 | 0.00 | 0.00 | 0.00 | 66 | 1015.5 |
| 20260831150649 | 71 | 295 | 2.0 | 3.0 | 0.00 | 0.00 | 0.00 | 70 | 1015.5 |
| 20260831150145 | 69 | 252 | 2.0 | 3.0 | 0.00 | 0.00 | 0.00 | 69 | 1015.5 |
| 20260831145638 | 70 | 259 | 2.0 | 8.0 | 0.00 | 0.00 | 0.00 | 68 | 1015.5 |
| 20260831145135 | 69 | 255 | 2.0 | 3.0 | 0.00 | 0.00 | 0.00 | 71 | 1015.3 |
| 20260831144631 | 68 | 279 | 3.0 | 4.0 | 0.00 | 0.00 | 0.00 | 71 | 1015.6 |
| 20260831144127 | 68 | 278 | 4.0 | 4.0 | 0.00 | 0.00 | 0.00 | 71 | 1015.6 |
| 20260831143626 | 68 | 269 | 2.0 | 4.0 | 0.00 | 0.00 | 0.00 | 71 | 1015.4 |
| 20260831143121 | 69 | 264 | 4.0 | 5.0 | 0.00 | 0.00 | 0.00 | 70 | 1015.5 |
| 20260831142618 | 69 | 250 | 2.0 | 4.0 | 0.00 | 0.00 | 0.00 | 69 | 1015.4 |
| 20260831142113 | 68 | 280 | 3.0 | 6.0 | 0.00 | 0.00 | 0.00 | 71 | 1015.5 |
| 20260831141611 | 68 | 309 | 2.0 | 4.0 | 0.00 | 0.00 | 0.00 | 73 | 1015.2 |
| 20260831141107 | 69 | 317 | 2.0 | 7.0 | 0.00 | 0.00 | 0.00 | 71 | 1015.3 |
| 20260831140606 | 68 | 265 | 3.0 | 5.0 | 0.00 | 0.00 | 0.00 | 73 | 1015.3 |
| 20260831140101 | 67 | 292 | 3.0 | 4.0 | 0.00 | 0.00 | 0.00 | 75 | 1015.0 |
| 20260831135558 | 66 | 262 | 4.0 | 5.0 | 0.00 | 0.00 | 0.00 | 76 | 1015.2 |
| 20260831135054 | 66 | 286 | 3.0 | 5.0 | 0.00 | 0.00 | 0.00 | 76 | 1015.3 |
| 20260831134550 | 65 | 269 | 4.0 | 5.0 | 0.00 | 0.00 | 0.00 | 78 | 1015.2 |
| 20260831134050 | 65 | 271 | 4.0 | 4.0 | 0.00 | 0.00 | 0.00 | 78 | 1015.2 |
| 20260831133550 | 65 | 275 | 4.0 | 4.0 | 0.00 | 0.00 | 0.00 | 79 | 1015.2 |
| 20260831133045 | 64 | 265 | 2.0 | 4.0 | 0.00 | 0.00 | 0.00 | 80 | 1015.0 |
| 20260831132541 | 64 | 251 | 2.0 | 4.0 | 0.00 | 0.00 | 0.00 | 82 | 1014.9 |
| 20260831132040 | 63 | 266 | 2.0 | 4.0 | 0.00 | 0.00 | 0.00 | 84 | 1014.9 |
| 20260831131535 | 62 | 266 | 3.0 | 5.0 | 0.00 | 0.00 | 0.00 | 85 | 1014.9 |
| 20260831131031 | 62 | 275 | 3.0 | 5.0 | 0.00 | 0.00 | 0.00 | 86 | 1014.6 |
| 20260831130526 | 61 | 275 | 4.0 | 6.0 | 0.00 | 0.00 | 0.00 | 86 | 1014.6 |
| 20260831130021 | 62 | 260 | 4.0 | 5.0 | 0.00 | 0.00 | 0.00 | 86 | 1014.6 |
| 20260831125515 | 61 | 266 | 4.0 | 5.0 | 0.00 | 0.00 | 0.00 | 87 | 1014.5 |
| 20260831125011 | 61 | 268 | 3.0 | 5.0 | 0.00 | 0.00 | 0.00 | 87 | 1014.1 |
| 20260831124507 | 61 | 279 | 2.0 | 5.0 | 0.00 | 0.00 | 0.00 | 87 | 1014.2 |
| 20260831124003 | 61 | 272 | 4.0 | 5.0 | 0.00 | 0.00 | 0.00 | 87 | 1014.2 |
| 20260831123501 | 62 | 263 | 4.0 | 6.0 | 0.00 | 0.00 | 0.00 | 87 | 1014.1 |
| 20260831122955 | 62 | 266 | 4.0 | 5.0 | 0.00 | 0.00 | 0.00 | 86 | 1014.3 |
| 20260831122451 | 62 | 271 | 3.0 | 4.0 | 0.00 | 0.00 | 0.00 | 86 | 1013.8 |
| 20260831121946 | 62 | 273 | 3.0 | 4.0 | 0.00 | 0.00 | 0.00 | 86 | 1013.8 |
| 20260831121441 | 62 | 280 | 4.0 | 6.0 | 0.00 | 0.00 | 0.00 | 86 | 1013.7 |
| 20260831120937 | 62 | 271 | 4.0 | 5.0 | 0.00 | 0.00 | 0.00 | 85 | 1013.7 |
| 20260831120437 | 63 | 275 | 4.0 | 5.0 | 0.00 | 0.00 | 0.00 | 85 | 1013.7 |
| 20260831115937 | 63 | 260 | 4.0 | 5.0 | 0.00 | 0.00 | 0.00 | 85 | 1013.6 |
| 20260831115433 | 63 | 274 | 3.0 | 4.0 | 0.00 | 0.00 | 0.00 | 85 | 1013.9 |
| 20260831114933 | 63 | 260 | 4.0 | 6.0 | 0.00 | 0.00 | 0.00 | 86 | 1013.6 |
| 20260831114431 | 63 | 272 | 3.0 | 6.0 | 0.00 | 0.00 | 0.00 | 86 | 1013.5 |
| 20260831113927 | 63 | 277 | 4.0 | 7.0 | 0.00 | 0.00 | 0.00 | 86 | 1013.4 |
| 20260831113427 | 63 | 282 | 5.0 | 6.0 | 0.00 | 0.00 | 0.00 | 86 | 1013.3 |
| 20260831112922 | 63 | 276 | 5.0 | 6.0 | 0.00 | 0.00 | 0.00 | 86 | 1013.1 |
| 20260831112417 | 64 | 281 | 4.0 | 6.0 | 0.00 | 0.00 | 0.00 | 86 | 1013.2 |
| 20260831111912 | 64 | 261 | 4.0 | 6.0 | 0.00 | 0.00 | 0.00 | 86 | 1013.3 |
| 20260831111408 | 64 | 269 | 3.0 | 6.0 | 0.00 | 0.00 | 0.00 | 85 | 1013.0 |
| 20260831110904 | 64 | 276 | 3.0 | 5.0 | 0.00 | 0.00 | 0.00 | 85 | 1013.1 |
| 20260831110403 | 64 | 265 | 4.0 | 7.0 | 0.00 | 0.00 | 0.00 | 85 | 1012.9 |
| 20260831105902 | 64 | 273 | 3.0 | 6.0 | 0.00 | 0.00 | 0.00 | 85 | 1013.0 |
| 20260831105358 | 65 | 271 | 5.0 | 7.0 | 0.00 | 0.00 | 0.00 | 85 | 1013.1 |
| 20260831104853 | 65 | 281 | 5.0 | 7.0 | 0.00 | 0.00 | 0.00 | 85 | 1013.0 |
| 20260831104349 | 65 | 263 | 5.0 | 8.0 | 0.00 | 0.00 | 0.00 | 85 | 1012.9 |
| 20260831103844 | 65 | 257 | 7.0 | 8.0 | 0.00 | 0.00 | 0.00 | 85 | 1012.9 |
| 20260831103340 | 65 | 278 | 4.0 | 5.0 | 0.00 | 0.00 | 0.00 | 85 | 1012.8 |
| 20260831102834 | 65 | 267 | 6.0 | 6.0 | 0.00 | 0.00 | 0.00 | 86 | 1012.7 |
| 20260831102324 | 65 | 271 | 3.0 | 6.0 | 0.00 | 0.00 | 0.00 | 86 | 1012.6 |
| 20260831101820 | 65 | 266 | 4.0 | 6.0 | 0.00 | 0.00 | 0.00 | 86 | 1012.2 |
| 20260831101314 | 65 | 268 | 4.0 | 6.0 | 0.00 | 0.00 | 0.00 | 86 | 1012.6 |
| 20260831100810 | 65 | 272 | 4.0 | 6.0 | 0.00 | 0.00 | 0.00 | 86 | 1012.6 |
| 20260831100306 | 65 | 275 | 4.0 | 6.0 | 0.00 | 0.00 | 0.00 | 87 | 1012.4 |
| 20260831095805 | 65 | 275 | 3.0 | 6.0 | 0.00 | 0.00 | 0.00 | 87 | 1012.4 |
| 20260831095300 | 66 | 272 | 4.0 | 7.0 | 0.00 | 0.00 | 0.00 | 87 | 1012.0 |
| 20260831094755 | 66 | 275 | 4.0 | 7.0 | 0.00 | 0.00 | 0.00 | 87 | 1012.0 |
| 20260831094250 | 66 | 266 | 4.0 | 7.0 | 0.00 | 0.00 | 0.00 | 87 | 1011.9 |
| 20260831093747 | 66 | 272 | 3.0 | 6.0 | 0.00 | 0.00 | 0.00 | 87 | 1011.9 |
| 20260831093246 | 66 | 268 | 5.0 | 6.0 | 0.00 | 0.00 | 0.00 | 87 | 1011.7 |
| 20260831092743 | 67 | 266 | 5.0 | 6.0 | 0.00 | 0.00 | 0.00 | 87 | 1011.5 |
| 20260831092239 | 67 | 271 | 4.0 | 6.0 | 0.00 | 0.00 | 0.00 | 87 | 1011.3 |
| 20260831091738 | 67 | 284 | 3.0 | 4.0 | 0.00 | 0.00 | 0.00 | 87 | 1011.2 |
| 20260831091234 | 67 | 264 | 3.0 | 5.0 | 0.00 | 0.00 | 0.00 | 86 | 1011.3 |
| 20260831090729 | 67 | 265 | 4.0 | 5.0 | 0.00 | 0.00 | 0.00 | 87 | 1011.1 |
| 20260831090225 | 67 | 267 | 2.0 | 3.0 | 0.00 | 0.00 | 0.00 | 86 | 1011.1 |
| 20260831085721 | 68 | 267 | 3.0 | 4.0 | 0.00 | 0.00 | 0.00 | 86 | 1011.2 |
| 20260831085216 | 68 | 274 | 2.0 | 4.0 | 0.00 | 0.00 | 0.00 | 86 | 1010.9 |
| 20260831084711 | 68 | 262 | 3.0 | 4.0 | 0.00 | 0.00 | 0.00 | 86 | 1010.9 |
| 20260831084207 | 68 | 269 | 3.0 | 3.0 | 0.00 | 0.00 | 0.00 | 85 | 1010.8 |
| 20260831083703 | 69 | 266 | 3.0 | 4.0 | 0.00 | 0.00 | 0.00 | 84 | 1010.9 |
| 20260831083158 | 69 | 275 | 2.0 | 3.0 | 0.00 | 0.00 | 0.00 | 84 | 1010.8 |
| 20260831082656 | 69 | 257 | 2.0 | 3.0 | 0.00 | 0.00 | 0.00 | 84 | 1010.7 |
| 20260831082152 | 69 | 221 | 1.0 | 2.0 | 0.00 | 0.00 | 0.00 | 84 | 1010.6 |
| 20260831081647 | 69 | 342 | 4.0 | 12.0 | 0.00 | 0.00 | 0.00 | 84 | 1010.5 |
| 20260831081143 | 69 | 238 | 0.0 | 2.0 | 0.00 | 0.00 | 0.00 | 85 | 1010.5 |
| 20260831080639 | 69 | 237 | 2.0 | 3.0 | 0.00 | 0.00 | 0.00 | 85 | 1010.5 |
| 20260831080133 | 69 | 267 | 2.0 | 4.0 | 0.00 | 0.00 | 0.00 | 85 | 1010.4 |
| 20260831075629 | 69 | 338 | 2.0 | 8.0 | 0.00 | 0.00 | 0.00 | 85 | 1010.3 |
| 20260831075124 | 69 | 264 | 4.0 | 5.0 | 0.00 | 0.00 | 0.00 | 85 | 1010.4 |
| 20260831074623 | 69 | 303 | 2.0 | 4.0 | 0.00 | 0.00 | 0.00 | 85 | 1010.4 |
| 20260831074118 | 69 | 246 | 4.0 | 7.0 | 0.00 | 0.00 | 0.00 | 85 | 1010.3 |
| 20260831073613 | 69 | 316 | 3.0 | 5.0 | 0.00 | 0.00 | 0.00 | 85 | 1010.2 |
| 20260831073113 | 70 | 293 | 4.0 | 12.0 | 0.00 | 0.00 | 0.00 | 85 | 1010.2 |
| 20260831072608 | 70 | 278 | 5.0 | 6.0 | 0.00 | 0.00 | 0.00 | 85 | 1010.3 |
| 20260831072105 | 70 | 261 | 4.0 | 8.0 | 0.00 | 0.00 | 0.00 | 85 | 1010.1 |
| 20260831071603 | 71 | 278 | 6.0 | 8.0 | 0.00 | 0.00 | 0.00 | 85 | 1010.3 |
| 20260831071059 | 71 | 278 | 5.0 | 7.0 | 0.00 | 0.00 | 0.00 | 86 | 1010.2 |
| 20260831070557 | 72 | 287 | 6.0 | 9.0 | 0.00 | 0.00 | 0.00 | 86 | 1009.9 |
| 20260831070052 | 73 | 278 | 5.0 | 6.0 | 0.00 | 0.00 | 0.00 | 86 | 1009.5 |
| 20260831065550 | 73 | 306 | 4.0 | 7.0 | 0.00 | 0.00 | 0.00 | 85 | 1009.5 |
| 20260831065045 | 73 | 291 | 5.0 | 6.0 | 0.00 | 0.00 | 0.00 | 82 | 1009.5 |
| 20260831064540 | 74 | 275 | 5.0 | 6.0 | 0.00 | 0.00 | 0.00 | 79 | 1009.4 |
| 20260831064035 | 74 | 283 | 4.0 | 6.0 | 0.00 | 0.00 | 0.00 | 75 | 1009.0 |
| 20260831063531 | 74 | 271 | 6.0 | 10.0 | 0.00 | 0.00 | 0.00 | 73 | 1009.0 |
| 20260831063025 | 73 | 241 | 2.0 | 3.0 | 0.00 | 0.00 | 0.00 | 75 | 1009.1 |
| 20260831062520 | 73 | 265 | 2.0 | 4.0 | 0.00 | 0.00 | 0.00 | 74 | 1009.0 |
| 20260831062020 | 72 | 269 | 3.0 | 3.0 | 0.00 | 0.00 | 0.00 | 77 | 1008.7 |
| 20260831061518 | 72 | 230 | 0.0 | 3.0 | 0.00 | 0.00 | 0.00 | 77 | 1008.7 |
| 20260831061015 | 72 | 235 | 0.0 | 1.0 | 0.00 | 0.00 | 0.00 | 77 | 1008.7 |
| 20260831060514 | 72 | 280 | 1.0 | 2.0 | 0.00 | 0.00 | 0.00 | 77 | 1008.9 |
| 20260831060010 | 72 | 224 | 1.0 | 2.0 | 0.00 | 0.00 | 0.00 | 76 | 1008.9 |
| 20260831055504 | 73 | 271 | 2.0 | 6.0 | 0.00 | 0.00 | 0.00 | 75 | 1008.9 |
| 20260831055000 | 73 | 325 | 3.0 | 4.0 | 0.00 | 0.00 | 0.00 | 74 | 1008.6 |
| 20260831054459 | 73 | 162 | 1.0 | 2.0 | 0.00 | 0.00 | 0.00 | 74 | 1008.5 |
| 20260831053959 | 73 | 273 | 0.0 | 2.0 | 0.00 | 0.00 | 0.00 | 74 | 1008.5 |
| 20260831053457 | 73 | 226 | 2.0 | 2.0 | 0.00 | 0.00 | 0.00 | 74 | 1008.5 |
| 20260831052952 | 74 | 269 | 1.0 | 1.0 | 0.00 | 0.00 | 0.00 | 73 | 1008.3 |
| 20260831052451 | 74 | 153 | 0.0 | 2.0 | 0.00 | 0.00 | 0.00 | 72 | 1008.0 |
| 20260831051950 | 74 | 233 | 0.0 | 2.0 | 0.00 | 0.00 | 0.00 | 71 | 1008.3 |
| 20260831051449 | 75 | 255 | 0.0 | 1.0 | 0.00 | 0.00 | 0.00 | 70 | 1008.0 |
| 20260831050943 | 75 | 217 | 0.0 | 3.0 | 0.00 | 0.00 | 0.00 | 69 | 1008.0 |
| 20260831050443 | 76 | 168 | 3.0 | 5.0 | 0.00 | 0.00 | 0.00 | 69 | 1007.8 |
| 20260831045942 | 76 | 143 | 4.0 | 5.0 | 0.00 | 0.00 | 0.00 | 68 | 1007.8 |
| 20260831045441 | 76 | 152 | 3.0 | 4.0 | 0.00 | 0.00 | 0.00 | 68 | 1007.9 |
| 20260831044941 | 76 | 158 | 2.0 | 4.0 | 0.00 | 0.00 | 0.00 | 68 | 1007.7 |
| 20260831044437 | 76 | 157 | 3.0 | 5.0 | 0.00 | 0.00 | 0.00 | 67 | 1007.9 |
| 20260831043932 | 76 | 127 | 3.0 | 3.0 | 0.00 | 0.00 | 0.00 | 68 | 1007.8 |
| 20260831043427 | 76 | 139 | 1.0 | 2.0 | 0.00 | 0.00 | 0.00 | 68 | 1007.9 |
| 20260831042922 | 76 | 120 | 1.0 | 2.0 | 0.00 | 0.00 | 0.00 | 69 | 1008.0 |
| 20260831042422 | 76 | 230 | 0.0 | 1.0 | 0.00 | 0.00 | 0.00 | 68 | 1007.9 |
| 20260831041916 | 76 | 311 | 1.0 | 3.0 | 0.00 | 0.00 | 0.00 | 68 | 1007.9 |
| 20260831041416 | 76 | 214 | 0.0 | 3.0 | 0.00 | 0.00 | 0.00 | 68 | 1007.7 |
| 20260831040912 | 76 | 351 | 1.0 | 2.0 | 0.00 | 0.00 | 0.00 | 69 | 1007.6 |
| 20260831040411 | 76 | 274 | 1.0 | 2.0 | 0.00 | 0.00 | 0.00 | 69 | 1007.6 |
| 20260831035909 | 76 | 263 | 0.0 | 2.0 | 0.00 | 0.00 | 0.00 | 68 | 1007.7 |
| 20260831035409 | 77 | 296 | 2.0 | 2.0 | 0.00 | 0.00 | 0.00 | 67 | 1007.7 |
| 20260831034908 | 77 | 322 | 0.0 | 1.0 | 0.00 | 0.00 | 0.00 | 66 | 1007.6 |
| 20260831034404 | 77 | 269 | 2.0 | 2.0 | 0.00 | 0.00 | 0.00 | 66 | 1007.8 |
| 20260831033859 | 78 | 283 | 1.0 | 2.0 | 0.00 | 0.00 | 0.00 | 65 | 1007.8 |
| 20260831033354 | 78 | 321 | 0.0 | 2.0 | 0.00 | 0.00 | 0.00 | 64 | 1007.8 |
| 20260831032844 | 78 | 325 | 2.0 | 2.0 | 0.00 | 0.00 | 0.00 | 64 | 1007.7 |
| 20260831032343 | 77 | 311 | 3.0 | 3.0 | 0.00 | 0.00 | 0.00 | 65 | 1007.6 |
| 20260831031839 | 77 | 355 | 1.0 | 2.0 | 0.00 | 0.00 | 0.00 | 65 | 1007.5 |
| 20260831031338 | 77 | 329 | 0.0 | 1.0 | 0.00 | 0.00 | 0.00 | 64 | 1007.4 |
| 20260831030828 | 78 | 129 | 0.0 | 1.0 | 0.00 | 0.00 | 0.00 | 63 | 1007.5 |
| 20260831030326 | 78 | 336 | 0.0 | 1.0 | 0.00 | 0.00 | 0.00 | 62 | 1007.6 |
| 20260831025825 | 79 | 322 | 1.0 | 2.0 | 0.00 | 0.00 | 0.00 | 60 | 1007.7 |
| 20260831025320 | 79 | 268 | 2.0 | 2.0 | 0.00 | 0.00 | 0.00 | 59 | 1007.7 |
| 20260831024816 | 79 | 319 | 2.0 | 2.0 | 0.00 | 0.00 | 0.00 | 60 | 1007.7 |
| 20260831024315 | 79 | 359 | 0.0 | 0.0 | 0.00 | 0.00 | 0.00 | 58 | 1007.4 |
| 20260831023814 | 80 | 102 | 0.0 | 2.0 | 0.00 | 0.00 | 0.00 | 58 | 1007.5 |
| 20260831023312 | 79 | 298 | 2.0 | 2.0 | 0.00 | 0.00 | 0.00 | 59 | 1007.3 |
| 20260831022808 | 79 | 243 | 1.0 | 2.0 | 0.00 | 0.00 | 0.00 | 58 | 1007.5 |
| 20260831022306 | 79 | 8 | 1.0 | 2.0 | 0.00 | 0.00 | 0.00 | 58 | 1007.2 |
| 20260831021801 | 79 | 323 | 1.0 | 2.0 | 0.00 | 0.00 | 0.00 | 58 | 1007.2 |
| 20260831021256 | 79 | 328 | 0.0 | 1.0 | 0.00 | 0.00 | 0.00 | 59 | 1007.2 |
| 20260831020752 | 79 | 320 | 2.0 | 2.0 | 0.00 | 0.00 | 0.00 | 59 | 1007.2 |
| 20260831020245 | 79 | 337 | 0.0 | 2.0 | 0.00 | 0.00 | 0.00 | 59 | 1007.2 |
| 20260831015741 | 79 | 342 | 2.0 | 2.0 | 0.00 | 0.00 | 0.00 | 57 | 1007.2 |
| 20260831015237 | 80 | 279 | 0.0 | 1.0 | 0.00 | 0.00 | 0.00 | 57 | 1007.4 |
| 20260831014731 | 80 | 321 | 0.0 | 2.0 | 0.00 | 0.00 | 0.00 | 57 | 1007.1 |
| 20260831014226 | 81 | 293 | 0.0 | 2.0 | 0.00 | 0.00 | 0.00 | 56 | 1007.1 |
| 20260831013722 | 81 | 253 | 0.0 | 2.0 | 0.00 | 0.00 | 0.00 | 54 | 1007.1 |
| 20260831013221 | 82 | 354 | 0.0 | 2.0 | 0.00 | 0.00 | 0.00 | 53 | 1007.2 |
| 20260831012716 | 81 | 10 | 2.0 | 3.0 | 0.00 | 0.00 | 0.00 | 54 | 1007.0 |
| 20260831012212 | 81 | 295 | 1.0 | 2.0 | 0.00 | 0.00 | 0.00 | 56 | 1007.1 |
| 20260831011710 | 80 | 2 | 2.0 | 2.0 | 0.00 | 0.00 | 0.00 | 56 | 1007.2 |
| 20260831011207 | 81 | 256 | 0.0 | 1.0 | 0.00 | 0.00 | 0.00 | 57 | 1007.3 |
| 20260831010702 | 81 | 297 | 1.0 | 1.0 | 0.00 | 0.00 | 0.00 | 56 | 1007.2 |
| 20260831010157 | 82 | 246 | 0.0 | 0.0 | 0.00 | 0.00 | 0.00 | 55 | 1007.1 |
| 20260831005652 | 82 | 104 | 0.0 | 0.0 | 0.00 | 0.00 | 0.00 | 54 | 1007.2 |
| 20260831005147 | 83 | 245 | 0.0 | 1.0 | 0.00 | 0.00 | 0.00 | 54 | 1007.1 |
| 20260831004642 | 83 | 205 | 0.0 | 1.0 | 0.00 | 0.00 | 0.00 | 53 | 1007.0 |
| 20260831004138 | 84 | 230 | 0.0 | 1.0 | 0.00 | 0.00 | 0.00 | 52 | 1007.0 |
| 20260831003634 | 84 | 218 | 0.0 | 1.0 | 0.00 | 0.00 | 0.00 | 51 | 1007.1 |
| 20260831003130 | 85 | 217 | 0.0 | 2.0 | 0.00 | 0.00 | 0.00 | 51 | 1007.2 |
| 20260831002629 | 86 | 250 | 0.0 | 1.0 | 0.00 | 0.00 | 0.00 | 50 | 1007.1 |
| 20260831002124 | 86 | 230 | 0.0 | 2.0 | 0.00 | 0.00 | 0.00 | 48 | 1007.1 |
| 20260831001619 | 87 | 245 | 2.0 | 2.0 | 0.00 | 0.00 | 0.00 | 47 | 1007.1 |
| 20260831001114 | 87 | 238 | 1.0 | 2.0 | 0.00 | 0.00 | 0.00 | 47 | 1007.3 |
| 20260831000611 | 88 | 242 | 2.0 | 2.0 | 0.00 | 0.00 | 0.00 | 46 | 1007.1 |
| 20260831000106 | 88 | 263 | 2.0 | 2.0 | 0.00 | 0.00 | 0.00 | 45 | 1007.1 |
| 20260830235604 | 88 | 252 | 2.0 | 3.0 | 0.00 | 0.00 | 0.00 | 46 | 1007.0 |
| 20260830235059 | 89 | 273 | 1.0 | 2.0 | 0.00 | 0.00 | 0.00 | 44 | 1006.8 |
| 20260830234554 | 89 | 208 | 4.0 | 4.0 | 0.00 | 0.00 | 0.00 | 42 | 1007.1 |